Weather in Davydovka

Russia / Samara Oblast     52°45′00″N   48°24′40″E
temp.,
°C
wind,
m/s
gust,
m/s
humid.,
%
clouds,
%
prec.,
mm/h
press.,
hPa
HPBL,
m
1 march, mon
mon101:00−16nnw469289 0.0 1017125
04:00−18nw349247 0.0 101959
07:00−18nw339523 0.0 102129
10:00−16nw379317 0.0 1023208
13:00−12nw358814 0.0 1023391
16:00−10wnw259154 0.0 1023406
19:00−13w129699 0.0 102321
22:00−13wsw239394 0.1 102324
2 march, tue
tue201:00−14sw449421 0.0 102173
04:00−13sw5109357 0.0 1019238
07:00−10sw71392100 0.0 1015408
10:00−5sw81591100 0.9 1012661
13:00−1wsw91488100 0.1 1008882
16:000sw91495100 0.4 1006857
19:000wsw71295100 0.7 1004562
22:000w3795100 0.9 1004313
3 march, wed
wed301:00−3nw489091 0.0 1004158
04:00−5wnw479285 0.0 1004103
07:00−7wnw469114 0.0 100591
10:00−6wnw49917 0.0 1006241
13:00−4wnw59870 0.0 1006563
16:00−4wnw498642 0.0 1007554
19:00−7wnw498898 0.0 1008197
22:00−9nw478991 0.0 1011127
4 march, thu
thu401:00−11wnw36890 0.0 101182
04:00−11w46910 0.0 1012111
07:00−11wsw46930 0.0 1012110
10:00−7wsw6119112 0.0 1012354
13:00−2wsw7128667 0.0 1010837
16:00−1sw9148684 0.0 1009777
19:00−1sw91787100 0.0 1007690
22:00−1sw91887100 0.0 1006746
5 march, fri
fri501:00−2sw81784100 0.0 1005644
04:00−2sw71686100 0.0 1004563
07:00−1sw7148995 0.0 1005570
10:00+1sw7139598 0.1 1005640
13:00+1sw713100100 0.2 1006452
16:00+1wsw612100100 0.6 1008427
19:00−2nne2498100 0.9 1009150
22:00−2ene2298100 1.3 1010103